Temperature
20 20 20 20 20 20 20 20 20 20 20 20 20 20 20 20 19 19 19 19 19 19 19 19 19 18 18 18 18 18 18 18 18 18 18 18 18 18 18 18 18 18 18
20 20 20 20 20 20 20 20 20 20 20 20 20 19 19 19 19 19 19 19 19 19 19 19 19 18 18 18 18 18 18 18 18 18 18 18 18 18 18 18 18 18 18
20 20 20 20 20 20 20 20 20 20 20 19 19 19 19 19 19 19 19 19 19 19 19 18 18 18 18 18 18 18 18 18 18 18 18 18 18 18 18 18 18 18 18
20 20 20 20 20 20 20 19 19 19 19 19 19 19 19 19 19 19 19 19 19 19 18 18 18 18 18 18 18 18 18 18 18 18 18 18 18 18 18 18 18 18 18
20 20 20 20 20 20 20 20 19 19 19 19 19 19 19 19 19 19 19 19 19 19 18 18 18 18 18 18 18 18 18 18 18 18 18 18 18 18 18 18 18 18 18
20 20 20 20 20 20 20 20 19 19 19 19 19 19 19 19 19 19 19 19 19 18 18 18 18 18 18 18 18 18 18 18 18 18 18 18 18 18 18 18 18 18 18
20 20 20 20 20 20 20 20 20 20 20 19 19 19 19 19 19 19 19 19 18 18 18 18 18 18 18 18 18 18 18 18 18 18 18 18 18 18 18 18 18 17 17
20 20 20 20 20 20 20 20 20 20 20 19 19 19 19 19 19 19 19 19 18 18 18 18 18 18 18 18 18 18 18 18 18 18 18 18 18 18 18 18 18 17 17
20 20 20 20 20 20 20 20 20 19 19 19 19 19 19 19 19 19 19 19 18 18 18 18 18 18 18 18 18 18 18 18 18 18 18 18 18 18 18 18 17 17 17
20 20 20 20 20 20 20 20 19 19 19 19 19 19 19 19 19 19 19 19 18 18 18 18 18 18 18 18 18 18 18 18 18 18 18 18 18 18 18 18 17 17 17
20 20 20 20 20 20 20 19 19 19 19 19 19 19 19 19 19 18 19 19 18 18 18 18 18 18 18 18 18 18 18 18 18 18 18 18 18 18 18 17 17 17 17
20 20 20 20 20 20 20 19 20 19 19 19 19 19 19 19 19 18 18 18 18 18 18 18 18 18 18 18 18 18 18 18 18 18 18 18 18 18 18 17 17 17 17
21 20 20 20 20 20 20 20 20 19 19 19 19 19 19 19 19 18 18 18 18 18 18 18 18 18 18 18 18 18 18 18 18 18 18 18 18 18 18 18 17 17 17
21 20 20 20 20 20 20 20 20 19 19 19 19 19 19 19 19 18 18 18 18 18 18 18 18 18 18 18 18 18 18 18 18 18 18 18 18 18 18 18 17 17 17
21 21 20 20 20 20 20 20 19 19 19 19 19 19 19 19 19 18 18 18 18 18 18 18 18 18 18 18 18 18 18 18 18 18 18 18 18 18 18 18 17 17 17
21 21 20 20 20 20 20 20 19 19 19 19 19 19 19 19 19 19 18 18 18 18 18 18 18 18 18 18 18 18 18 18 18 18 18 18 18 18 17 17 17 17 17
21 21 20 20 20 20 20 20 19 19 19 19 19 19 19 19 19 19 18 18 18 18 18 18 18 18 18 18 18 18 18 18 18 18 18 18 18 18 17 17 17 17 17
21 21 21 20 20 20 20 20 20 19 19 19 19 19 19 19 19 19 18 18 18 18 18 18 18 18 18 18 18 18 18 18 18 18 18 18 18 18 18 17 17 17 17
21 21 21 21 20 20 20 20 19 19 19 19 19 19 19 19 19 19 18 18 18 18 18 18 18 18 18 18 17 17 17 17 18 18 17 17 18 18 18 17 17 17 17
21 21 21 21 20 20 20 20 19 19 19 19 19 19 19 19 19 19 19 18 18 18 18 18 18 18 18 18 17 17 17 17 17 17 17 17 17 17 17 17 17 17 17
21 21 21 21 20 20 20 20 20 19 19 19 19 19 19 19 19 19 18 18 18 18 18 18 17 17 18 17 17 17 17 17 17 17 17 17 17 17 17 17 17 17 17
21 21 21 21 20 20 20 20 19 19 19 19 19 19 19 19 19 18 18 18 18 18 18 18 18 18 17 17 17 17 17 17 17 17 17 17 17 17 17 17 17 17 17
21 21 21 21 21 20 20 20 19 19 19 19 19 19 19 19 18 18 18 18 18 18 18 18 18 18 17 17 17 17 17 17 17 17 17 17 17 17 17 17 17 16 16
21 21 21 21 21 20 20 20 20 20 19 19 19 19 19 19 18 18 18 18 18 18 18 18 18 17 17 17 17 17 17 17 17 16 16 17 17 17 16 16 16 16 16
21 21 21 21 21 20 20 20 20 20 19 19 19 19 19 18 18 18 18 18 18 18 18 17 17 17 17 17 17 17 17 17 17 16 16 16 16 16 16 16 16 16 16
21 21 21 21 20 20 20 19 19 19 19 19 19 19 18 18 18 18 18 18 18 18 17 17 17 17 17 17 17 17 17 17 16 16 16 16 16 16 16 16 16 16 16
Wind_Speed
2 4 9 10 12 12 13 13 13 13 13 13 13 13 14 15 15 14 15 15 14 13 13 12 12 11 11 11 11 11 11 11 12 12 11 11 12 12 12 12 12 10 12
5 7 11 11 12 12 13 13 13 13 13 13 13 13 13 14 14 14 14 14 14 13 13 12 11 11 10 11 10 11 11 11 11 11 11 11 11 11 11 11 12 10 12
7 8 10 12 12 12 13 13 13 13 12 12 12 11 12 14 14 13 13 13 13 13 12 12 11 11 10 10 10 10 10 11 11 10 9 8 9 11 11 11 11 11 12
7 7 10 12 12 12 12 12 12 12 11 11 11 11 12 14 13 13 13 12 12 12 12 11 11 10 10 9 9 9 10 9 10 9 7 7 8 10 11 10 10 11 12
6 8 10 12 12 12 12 12 11 11 11 11 11 11 12 13 12 12 11 11 11 11 11 10 10 9 9 9 9 9 9 8 8 7 6 6 8 10 10 10 10 11 12
6 8 10 12 13 13 12 11 11 11 11 10 10 10 11 11 11 11 10 10 10 9 9 9 9 8 8 8 8 8 8 8 6 6 6 6 8 10 10 10 10 11 11
7 7 10 12 12 12 11 11 10 10 10 10 9 9 10 9 9 9 8 8 8 8 7 8 7 7 7 7 7 7 7 7 6 5 6 6 8 10 10 10 10 10 11
7 6 8 11 11 11 11 10 10 10 9 9 9 9 9 9 8 8 7 6 6 6 6 6 6 6 6 6 6 6 6 6 5 5 5 6 8 10 10 10 10 9 10
6 6 5 7 8 9 9 9 9 9 9 9 8 8 8 8 7 6 5 5 4 4 4 4 5 5 5 5 6 6 6 6 5 4 4 5 9 10 10 10 9 9 9
6 5 4 5 6 6 6 8 8 8 8 8 7 7 7 6 6 5 4 4 3 3 4 4 4 4 4 5 5 5 5 5 4 4 4 5 8 10 10 9 9 10 9
5 4 4 4 4 4 4 6 6 7 7 7 6 6 5 4 4 3 4 3 2 2 2 3 3 3 3 3 4 4 4 3 4 3 4 6 8 9 9 9 9 9 10
6 5 4 4 4 4 4 4 4 4 5 5 4 4 4 3 3 2 2 2 1 1 1 1 1 1 1 1 2 2 2 3 3 3 4 6 8 9 8 9 10 9 9
6 5 4 4 4 4 3 3 3 3 3 4 3 3 4 3 2 2 1 1 2 2 1 1 1 0 1 2 1 1 2 2 3 3 4 6 8 9 9 9 9 9 9
6 5 5 5 4 4 4 3 3 3 3 2 2 2 3 2 1 1 1 1 2 1 1 1 1 1 2 2 2 2 1 2 2 3 4 6 7 8 8 8 9 9 9
7 6 5 5 5 5 4 3 3 3 3 3 2 2 2 2 1 1 1 1 1 1 1 1 2 2 2 2 2 2 1 1 2 3 4 6 7 8 8 8 8 9 9
8 7 6 6 5 5 4 3 3 3 3 2 2 2 3 3 2 1 1 0 0 0 0 1 2 2 2 2 1 1 1 1 1 2 3 4 6 7 8 8 8 8 8
7 6 6 6 6 5 5 4 3 3 3 2 2 2 3 3 3 2 1 0 1 0 1 1 2 2 2 2 1 0 1 1 1 1 2 2 4 5 6 7 7 7 8
6 6 6 6 6 5 4 4 3 3 2 1 2 2 2 3 4 2 1 1 1 1 1 1 1 2 1 1 0 1 1 0 0 0 1 1 2 3 3 4 5 6 6
7 7 6 6 6 6 5 4 3 2 2 1 1 1 2 2 3 3 2 1 1 1 1 1 1 2 1 1 0 0 1 0 0 0 0 0 1 1 1 2 3 5 5
6 6 7 7 6 5 4 3 2 2 1 1 1 1 2 2 3 3 2 1 2 2 1 1 1 1 1 1 1 1 1 1 1 0 0 0 1 1 1 1 2 4 5
7 7 7 7 6 5 4 3 3 2 1 1 1 1 2 2 3 3 1 1 1 2 2 2 2 2 1 1 2 2 2 2 1 1 0 0 1 1 1 1 2 2 3
8 8 8 8 7 6 4 3 2 2 1 1 1 1 2 2 3 3 3 2 2 2 2 1 2 2 1 1 1 1 1 2 2 2 1 1 0 0 0 1 2 2 2
8 9 8 8 7 7 5 4 3 3 2 1 0 0 0 2 3 3 3 2 2 2 2 2 2 3 2 1 1 2 2 1 1 2 1 1 1 0 0 1 1 2 3
8 7 6 7 6 6 6 5 5 4 3 2 1 1 0 1 2 3 3 3 2 2 2 2 2 2 3 2 1 1 1 2 1 1 1 1 1 0 1 1 1 2 3
7 7 6 6 5 5 5 6 5 4 3 2 1 1 0 0 1 2 2 2 2 2 2 2 2 3 2 2 1 1 1 0 1 1 1 2 1 1 1 1 1 1 2
6 6 6 6 5 5 5 5 6 5 4 3 2 1 1 0 0 1 2 2 2 2 2 2 2 3 2 2 1 1 2 1 2 2 2 2 1 2 1 1 1 1 2
Wind_Direction
179 167 150 139 136 134 134 132 132 131 130 132 134 136 138 140 141 144 143 142 141 140 139 141 144 144 146 145 146 146 148 149 151 149 152 154 153 152 150 149 144 142 142
151 154 144 136 136 134 134 134 131 130 131 132 134 138 142 144 144 143 144 144 144 144 142 142 145 148 150 148 147 147 148 150 149 149 155 156 155 154 152 151 146 145 145
137 145 143 138 137 136 136 134 132 132 132 132 134 140 147 149 146 144 145 146 147 146 145 143 144 148 151 150 147 147 149 148 145 147 147 146 150 154 153 152 149 148 151
139 141 143 140 138 135 135 134 133 133 132 132 134 135 142 147 145 146 146 148 148 147 147 147 146 148 150 151 150 151 151 150 149 150 147 151 154 156 157 157 156 155 155
135 140 145 141 139 136 136 136 135 133 131 132 133 133 136 141 145 147 149 149 148 148 149 150 148 148 151 154 156 156 155 154 152 147 142 149 153 158 163 165 164 162 160
143 144 147 144 142 139 138 136 134 133 133 133 132 134 137 142 145 146 148 149 149 150 152 152 153 155 159 159 158 161 160 157 150 148 147 150 157 166 169 173 172 170 165
148 146 149 147 144 141 140 139 137 134 134 133 132 133 138 140 139 137 140 145 145 147 152 159 164 166 171 169 166 166 161 159 153 153 161 166 172 174 176 175 175 174 169
144 142 147 149 146 144 143 142 141 139 138 136 135 133 131 130 130 133 134 134 143 150 156 160 167 173 177 174 173 170 163 162 156 159 166 178 181 179 178 175 175 175 175
124 126 133 145 147 146 146 147 145 142 139 135 134 134 132 133 135 135 135 139 147 155 157 161 169 175 174 171 175 171 163 162 152 161 175 183 185 184 182 176 176 176 176
114 122 128 135 140 146 151 147 144 141 138 133 132 133 134 133 132 133 134 142 156 167 170 174 178 181 182 177 173 164 160 156 157 167 183 192 188 189 189 185 184 184 185
134 134 136 137 138 143 147 146 139 135 131 132 131 130 123 110 110 123 138 148 162 167 170 172 180 183 181 174 174 168 160 149 159 178 190 195 191 193 195 194 194 192 191
157 159 151 149 146 144 154 139 125 123 119 122 121 116 109 103 111 122 133 143 131 127 137 144 191 196 167 137 156 154 147 159 172 196 201 196 195 196 200 201 200 199 198
167 165 156 150 146 141 134 125 118 116 112 107 110 110 113 105 99 77 79 55 35 35 50 44 357 337 127 133 136 147 172 189 206 213 212 201 198 198 201 201 199 200 200
163 167 156 146 138 136 134 128 124 122 121 123 129 125 123 110 83 58 53 34 33 40 43 34 63 100 113 119 133 142 165 196 215 219 216 206 201 202 205 205 205 203 203
168 168 160 150 148 145 137 141 133 132 138 140 136 143 146 139 121 88 57 49 27 41 57 49 68 97 107 107 124 136 158 184 211 224 226 215 209 209 213 212 209 209 209
177 169 157 156 156 146 142 137 129 135 139 136 154 179 175 171 160 147 110 55 335 224 108 86 86 88 92 100 89 121 164 177 203 220 232 227 218 217 220 214 212 211 211
172 162 161 162 154 149 149 147 137 135 140 150 183 188 183 175 175 166 151 184 239 186 93 79 75 90 94 86 74 61 125 153 180 225 235 231 226 224 224 218 216 212 211
163 163 170 164 152 153 150 143 143 142 147 166 195 204 194 183 180 167 161 193 212 123 110 98 84 85 76 80 60 10 37 45 4 247 224 223 221 223 219 210 211 216 216
168 165 162 152 153 152 145 134 129 126 122 142 166 210 207 187 185 168 170 179 154 118 105 130 98 116 110 95 109 18 19 37 21 331 295 197 179 186 206 215 217 219 217
158 157 155 150 149 142 130 122 115 106 113 132 166 195 177 168 169 160 160 165 147 126 114 114 122 111 126 142 105 38 24 24 41 20 224 143 145 175 187 213 235 233 221
151 152 155 153 154 143 143 154 155 176 192 198 191 187 179 175 166 144 150 141 147 151 161 148 139 119 69 79 82 39 18 28 26 354 31 106 171 177 151 187 217 217 216
169 168 164 164 161 159 166 162 154 147 152 181 205 152 178 177 175 169 160 164 150 133 123 135 142 133 91 85 110 95 11 3 8 11 33 62 72 116 165 204 193 192 200
181 183 179 175 168 166 160 135 116 86 64 63 45 247 249 179 171 163 157 151 146 148 163 171 152 145 147 88 88 129 140 239 316 354 18 22 45 61 288 240 207 208 209
189 181 177 175 172 167 156 156 160 161 172 197 195 206 262 126 144 159 159 154 157 153 161 173 151 148 149 171 155 108 160 166 181 311 345 358 8 321 282 263 249 224 219
182 177 173 166 169 164 161 172 172 169 174 166 142 134 112 72 138 163 164 164 166 168 172 166 155 156 161 171 174 157 146 133 171 179 265 310 347 334 312 287 270 242 229
169 167 166 165 171 165 171 178 179 175 169 158 171 174 193 232 229 179 166 177 180 178 184 186 179 167 170 167 165 151 165 180 190 185 215 254 280 302 314 301 267 258 241
Height
1491 1491 1492 1493 1494 1496 1497 1499 1500 1502 1503 1505 1506 1508 1509 1511 1513 1515 1516 1518 1520 1522 1524 1526 1527 1529 1530 1532 1533 1534 1535 1536 1538 1539 1540 1542 1543 1545 1546 1548 1549 1551 1552
1491 1493 1494 1495 1496 1498 1499 1500 1502 1503 1505 1506 1507 1508 1509 1511 1514 1516 1517 1519 1521 1523 1525 1526 1528 1529 1531 1532 1533 1534 1536 1537 1538 1539 1540 1542 1543 1545 1546 1548 1550 1551 1553
1493 1495 1496 1497 1498 1500 1501 1503 1504 1505 1507 1508 1508 1508 1508 1511 1514 1516 1518 1520 1522 1524 1525 1527 1528 1530 1531 1533 1534 1535 1536 1537 1538 1539 1541 1542 1543 1545 1547 1548 1550 1551 1553
1495 1496 1498 1499 1501 1502 1503 1505 1506 1508 1509 1509 1509 1508 1507 1510 1514 1518 1519 1521 1523 1524 1526 1527 1529 1530 1532 1533 1535 1536 1537 1538 1539 1540 1541 1542 1544 1545 1547 1548 1550 1552 1553
1497 1498 1500 1501 1503 1504 1506 1507 1508 1510 1511 1511 1511 1511 1510 1513 1516 1519 1521 1522 1524 1525 1527 1528 1530 1531 1532 1534 1535 1536 1537 1538 1539 1540 1541 1542 1543 1545 1547 1549 1550 1552 1553
1498 1500 1502 1503 1505 1506 1508 1509 1510 1512 1512 1513 1514 1514 1515 1517 1519 1520 1522 1523 1525 1526 1528 1529 1530 1531 1533 1534 1535 1537 1538 1538 1540 1540 1542 1543 1544 1546 1547 1549 1550 1552 1553
1499 1502 1504 1506 1507 1509 1510 1512 1513 1514 1515 1516 1516 1517 1518 1519 1521 1522 1523 1524 1525 1527 1528 1529 1531 1532 1533 1535 1536 1537 1538 1539 1540 1541 1542 1543 1545 1546 1547 1548 1550 1552 1553
1501 1503 1506 1508 1510 1511 1513 1514 1515 1516 1517 1518 1518 1519 1520 1521 1523 1523 1525 1525 1527 1528 1529 1530 1531 1532 1534 1535 1536 1537 1538 1539 1540 1541 1543 1544 1545 1546 1547 1548 1550 1551 1553
1502 1505 1508 1510 1512 1513 1515 1516 1517 1518 1519 1519 1520 1521 1522 1523 1524 1525 1526 1527 1528 1529 1530 1531 1532 1533 1534 1535 1536 1537 1538 1539 1540 1542 1543 1544 1545 1546 1547 1548 1549 1551 1552
1505 1507 1510 1512 1513 1515 1517 1518 1519 1520 1520 1521 1522 1523 1524 1525 1526 1527 1527 1528 1529 1529 1530 1531 1531 1533 1534 1535 1536 1537 1538 1539 1540 1542 1543 1543 1544 1545 1546 1548 1549 1550 1551
1507 1509 1511 1513 1515 1517 1518 1520 1521 1521 1522 1522 1524 1525 1526 1526 1527 1528 1528 1529 1529 1530 1530 1531 1531 1532 1533 1534 1535 1537 1538 1539 1540 1541 1542 1543 1544 1545 1546 1547 1548 1549 1551
1509 1511 1513 1515 1517 1518 1520 1521 1522 1523 1523 1524 1525 1526 1527 1528 1528 1529 1529 1529 1530 1530 1530 1530 1531 1532 1533 1534 1536 1537 1538 1539 1540 1541 1542 1543 1544 1545 1546 1547 1548 1549 1550
1511 1513 1515 1517 1519 1520 1521 1522 1523 1524 1525 1526 1527 1527 1528 1529 1529 1529 1530 1530 1530 1530 1530 1530 1530 1530 1532 1534 1536 1537 1538 1539 1540 1541 1542 1543 1544 1545 1545 1546 1547 1548 1549
1512 1514 1516 1518 1519 1521 1522 1524 1525 1525 1526 1527 1528 1529 1529 1530 1530 1530 1531 1531 1531 1531 1531 1530 1529 1530 1532 1534 1536 1537 1538 1539 1540 1541 1542 1542 1543 1544 1545 1546 1547 1548 1548
1513 1515 1517 1518 1520 1522 1523 1524 1525 1526 1527 1528 1529 1530 1530 1530 1531 1531 1531 1532 1532 1532 1531 1531 1530 1531 1533 1534 1536 1537 1538 1539 1540 1540 1541 1542 1543 1543 1544 1545 1546 1547 1548
1513 1516 1518 1519 1521 1522 1524 1525 1526 1527 1528 1529 1530 1531 1531 1531 1532 1532 1532 1533 1533 1533 1533 1532 1532 1533 1534 1535 1536 1537 1538 1539 1539 1540 1541 1541 1542 1543 1544 1544 1545 1546 1547
1514 1516 1518 1520 1521 1523 1524 1526 1527 1528 1529 1530 1531 1531 1532 1532 1533 1533 1533 1533 1533 1533 1533 1533 1533 1534 1534 1535 1536 1537 1538 1538 1539 1540 1540 1541 1541 1542 1543 1543 1544 1545 1546
1514 1516 1518 1520 1521 1523 1524 1526 1527 1529 1529 1530 1531 1532 1532 1533 1533 1533 1533 1534 1534 1534 1534 1534 1534 1534 1535 1536 1536 1537 1537 1538 1538 1539 1539 1540 1540 1541 1542 1542 1543 1544 1545
1514 1516 1517 1519 1521 1523 1525 1526 1528 1529 1530 1530 1531 1532 1532 1533 1533 1533 1533 1534 1534 1534 1534 1534 1534 1534 1535 1535 1536 1536 1537 1537 1537 1538 1538 1539 1539 1540 1540 1541 1542 1543 1544
1514 1515 1517 1519 1521 1523 1524 1526 1527 1528 1529 1530 1531 1532 1532 1533 1533 1533 1533 1533 1533 1534 1534 1534 1534 1534 1535 1535 1535 1535 1536 1536 1537 1537 1537 1537 1538 1538 1539 1540 1540 1541 1542
1513 1514 1516 1519 1520 1522 1524 1525 1526 1528 1529 1530 1531 1532 1532 1532 1533 1533 1533 1533 1533 1533 1533 1533 1533 1534 1534 1535 1535 1535 1536 1536 1536 1536 1536 1536 1536 1537 1538 1538 1539 1539 1540
1511 1513 1515 1517 1519 1522 1523 1525 1526 1527 1528 1529 1530 1531 1532 1532 1532 1533 1533 1532 1532 1532 1533 1533 1533 1533 1533 1534 1535 1535 1535 1536 1535 1535 1535 1535 1535 1536 1536 1537 1537 1538 1538
1509 1512 1514 1516 1518 1521 1523 1525 1526 1527 1528 1529 1530 1531 1531 1532 1532 1532 1532 1532 1532 1532 1532 1532 1533 1533 1533 1533 1534 1535 1535 1534 1534 1535 1535 1535 1535 1535 1535 1535 1536 1536 1536
1508 1511 1514 1516 1518 1520 1522 1523 1525 1526 1527 1528 1529 1530 1531 1531 1532 1532 1532 1532 1532 1532 1532 1532 1532 1532 1532 1532 1533 1533 1534 1534 1534 1534 1534 1534 1534 1534 1534 1534 1534 1534 1535
1507 1510 1512 1515 1517 1518 1521 1522 1524 1525 1526 1527 1528 1529 1530 1530 1531 1531 1531 1531 1531 1531 1531 1531 1531 1531 1531 1532 1532 1532 1532 1532 1532 1532 1532 1532 1532 1532 1532 1532 1532 1533 1533
1506 1508 1510 1513 1515 1518 1520 1522 1523 1524 1525 1526 1527 1528 1529 1529 1529 1530 1530 1530 1530 1530 1530 1530 1530 1530 1531 1531 1531 1531 1531 1531 1531 1531 1531 1530 1530 1531 1531 1531 1530 1531 1531